CAPE
1492 1718 2007 2154 2360 2449 2494 2740 2867 2820 2928 3154 3267 3126 2973 2958 3049 3288 3376 3696 3714 3832 3838 3707 3553 3467 3320 3239 3245 3376 3328 3286 3267 3320 3336 3299 3003 2976 3162 3125 3045 3135 2520 2613 3167 3118 3553 3556 3102 3419 3697 4002 3740 3680 3815 3645 3456 3482 3456 3378 3085 2875 2806
1178 1481 1823 2024 2277 2401 2528 2711 2885 2798 2841 3054 3236 3277 2983 2884 3015 3156 3266 3588 3844 3886 3906 3776 3644 3499 3381 3325 3343 3310 3355 3283 3327 3258 3253 3360 3252 3150 3215 3360 3140 3256 3086 2577 2629 3218 3378 3892 3584 3696 4045 4206 4024 4019 4071 3975 3753 3752 3410 3426 3197 3036 2784
1111 1284 1572 1890 2121 2365 2540 2643 2885 2784 2843 2893 2967 3115 3000 3056 3183 3149 3231 3443 3761 3804 3890 3821 3735 3422 3238 3307 3517 3409 3468 3550 3446 3400 3266 3165 3308 2983 3183 3318 3382 3129 3188 3047 2829 3142 3725 4040 4155 3982 4100 4125 3974 4135 4102 4053 4055 3836 3596 3523 3318 3150 3222
1210 1242 1505 1879 2155 2389 2572 2620 2785 2715 2712 2725 2829 2895 3017 3255 3104 3134 3234 3264 3619 3746 3784 3659 3669 3282 3161 3386 3640 3744 3736 3600 3527 3468 3308 3131 3200 3279 3130 3340 3488 3038 3081 3106 2980 3061 3414 3823 4282 4423 4103 4104 4116 4006 4157 3901 3610 3802 3539 3551 3349 3254 3402
1076 1312 1433 1756 2013 2350 2446 2500 2596 2706 2580 2523 2650 3021 3154 3067 3016 2978 3047 3176 3317 3553 3520 3612 3538 3539 3576 3706 3658 3617 3782 3823 3766 3525 3523 3348 3246 3408 3373 3261 3331 3319 2944 3132 3231 3394 3538 4003 4237 4354 4552 4392 4213 3992 4089 4326 3800 3732 3568 3553 3483 3171 3225
767 1310 1472 1643 1920 2001 2276 2425 2404 2534 2472 2427 2628 2853 2830 2792 2798 2686 2818 3142 3212 3372 3533 3598 3610 3506 3547 3505 3578 3469 3726 3863 3946 3872 3650 3523 3461 3304 3465 3320 3285 3420 3073 3220 3160 3244 3738 3848 3924 4150 4250 4288 3848 3590 3949 4164 3935 3720 3665 3524 3607 3325 3218
256 1315 1609 1588 1674 1849 2153 2309 2192 2327 2390 2239 2343 2590 2615 2578 2623 2608 2710 2970 2884 3061 3191 3338 3473 3499 3634 3502 3629 3690 3774 3899 3945 3876 3678 3642 3572 3540 3523 3547 3353 3297 3208 3280 3258 3320 3570 3862 3721 3745 4039 3827 3881 3512 3555 4192 4094 4067 4155 3849 3893 3655 3563
74 1180 1765 1626 1569 1723 1902 2100 2083 2044 2235 2233 2096 2222 2359 2272 2344 2446 2608 2629 2681 2701 2970 2918 3322 3462 3588 3599 3613 3607 3682 3772 3842 3896 3780 3658 3636 3594 3568 3648 3575 3503 3569 3305 3557 3649 3380 3887 3858 3816 3753 3737 3950 3968 3817 4248 4508 4150 4132 4171 3979 3820 3642
75 1176 1590 1491 1420 1342 1580 1926 2083 1990 2086 2257 2104 2132 2183 2175 2246 2434 2461 2421 2530 2480 2631 2706 2990 3331 3679 3649 3662 3715 3760 3830 3786 3872 3854 3722 3709 3539 3449 3638 3773 3673 3621 3507 3382 3700 3601 3704 3757 3980 4122 3962 3905 4260 4168 4293 4591 4303 4156 4123 4095 4027 3654
134 1818 1635 1260 1112 991 1193 1395 1854 2112 2048 2356 2354 2288 2191 2111 2170 2270 2198 2194 2268 2280 2349 2557 2749 3170 3587 3633 3594 3738 3747 3818 3664 3698 3636 3579 3552 3534 3437 3344 3602 3690 3631 3627 3262 3569 3856 3680 3753 4017 4237 4208 4199 4267 4453 4420 4584 4523 4141 4175 4071 4059 4030
1393 1851 1680 1102 929 947 991 1117 1718 2322 2339 2773 2601 2208 2266 2116 2069 2000 2058 2060 2072 2214 2221 2566 2587 2820 3267 3517 3402 3516 3744 3708 3711 3593 3576 3447 3405 3398 3289 3239 3242 3478 3548 3527 3401 3127 3829 3873 3811 3970 4282 4270 4267 4345 4442 4458 4563 4535 4104 4080 4023 3986 3926
1784 1362 1767 1474 1201 1072 1007 1406 1823 2420 2500 2755 2521 2291 2432 2440 2048 1876 1976 2068 1968 2129 2218 2317 2482 2656 3038 3221 3204 3333 3549 3729 3721 3621 3522 3302 3222 3188 3102 3072 3121 3139 3450 3476 3458 3267 3257 3862 3867 3818 4270 4386 4332 4377 4511 4566 4524 4552 4290 4003 3993 3955 3763
427 582 1313 1533 1696 1572 1674 1783 1844 2450 2903 2786 2342 2281 2322 2134 2026 1875 2060 2094 1996 2068 2184 2384 2504 2751 2944 3167 3160 3246 3443 3624 3630 3554 3262 3340 3186 3031 3017 2981 2877 2926 3100 3361 3390 3286 3095 3125 3798 3792 3955 4302 4378 4306 4396 4585 4485 4562 4508 4167 3967 4002 3869
531 633 1340 1858 2091 2151 2267 2373 2290 2600 3114 2831 2548 2393 2287 2074 1868 1948 2021 2060 2023 1960 2090 2246 2462 2582 2734 3042 3184 3361 3548 3682 3859 3555 3482 3328 3522 3355 3130 3042 3083 3174 3153 3211 3323 3219 3119 2871 3247 3759 3800 4162 4261 4247 4254 4404 4483 4552 4537 4375 3992 3893 3927
490 620 1272 1527 2314 2726 2772 2905 2977 2581 2652 2515 2166 2167 2110 1989 1859 2042 2118 1996 2048 1862 1966 2236 2485 2604 2659 3060 3352 3468 3649 3924 3887 3752 3654 3402 3637 3606 3365 3365 3388 3243 3186 3256 3291 3228 3094 3026 2932 3496 3866 3867 4127 4242 4094 4050 4317 4432 4520 4118 3845 3938 3834
49 19 63 543 1669 2235 3217 3366 3333 3350 2768 2660 2126 2146 2083 2166 2186 2026 2054 1977 1899 1948 1954 2236 2563 2798 2793 3002 3384 3491 3781 3959 3966 3948 3928 3653 3608 3778 3642 3374 3420 3311 3287 3246 3272 3364 3356 3251 3128 3113 3652 3901 4051 4083 4125 3996 4092 3966 3684 3598 3748 3770 3730
0 0 0 24 707 1554 1812 2767 3099 3483 3029 2838 2497 2351 2390 2378 2195 1999 1782 1835 1826 1954 1868 2026 2742 2902 2946 3149 3415 3588 3936 4117 4117 4092 4045 3880 3750 3844 3803 3572 3462 3491 3575 3556 3525 3590 3604 3479 3361 3134 3258 3732 3893 4060 4056 4057 3978 3430 3343 3154 2993 3265 3682
0 52 302 188 558 999 1657 2426 3096 3359 3260 2728 2704 2660 2622 2602 2292 2125 1796 1832 1860 1838 1807 2003 2475 2887 3166 3318 3603 3820 4131 4190 4205 4102 4112 4090 3872 3846 3934 3740 3664 3628 3680 3661 3651 3715 3631 3591 3500 3503 3308 3403 3762 3865 3981 4080 3551 3163 3034 2846 2650 2728 3464
6 0 13 2034 1974 2032 1610 1368 1866 3148 2965 2419 2310 2446 2468 2498 2325 2478 2164 2160 2134 1904 1812 1944 2354 3219 3681 3612 3840 4027 4154 4213 4156 4331 4176 4116 4038 3891 4060 4055 3851 3775 3726 3636 3774 3829 3886 3746 3711 3702 3545 3397 3650 3825 3894 3984 3463 3028 2792 2621 2436 2289 2664
0 0 25 355 2178 1905 1953 2046 1814 1495 2069 2559 2165 1774 2139 2428 2260 2496 2278 1839 1883 2006 2158 2198 2441 3349 3678 3726 3985 4024 4082 4362 4286 4319 4173 4196 4160 4031 4049 4062 4003 3800 3684 3723 3822 3815 3944 3794 3822 3831 3866 3700 3728 3853 3908 3992 3524 3095 2701 2475 2298 2176 2121
0 41 2061 2546 3383 2706 3499 3571 3210 2799 2090 1797 1915 1718 1610 2008 2143 2168 2232 1908 1793 2067 2418 2334 2556 3208 3799 3842 3836 3964 4223 4293 4140 4091 4180 4150 4141 4092 4061 4048 4071 3883 3597 3516 3716 3939 4070 4008 3958 3918 3958 3847 3728 3803 3875 3999 3479 3248 2856 2493 2246 2076 1961
24 449 1447 2662 4480 5150 4675 4360 4419 3727 2665 1972 1680 1707 1578 1789 1859 1744 2126 1990 1868 2102 2281 2625 2885 3044 3782 3882 3684 3916 4048 3940 3999 3832 3983 4005 4065 4023 3950 3961 4019 4092 3831 3595 3601 3740 3868 4050 3939 3906 3888 3940 3956 3754 3836 3934 3327 3180 2984 2664 2373 2135 1942
1319 3071 3325 3812 3486 3477 4025 4060 3909 4046 3710 2649 1988 1542 1437 1572 1756 1755 2076 2115 1978 2450 2451 2749 3240 3238 3901 3849 3755 3632 3725 3684 3811 3772 3876 3928 3992 3985 3940 3968 4077 4068 4022 3757 3576 3669 3911 4039 4003 3987 3966 3994 4040 3936 3898 4052 3774 3083 2913 2714 2461 2268 2118
2429 2831 2718 3079 3437 3230 3497 3890 3938 3974 3766 2633 2097 1659 1459 1484 1790 1929 2172 2222 2105 2340 2434 2482 3240 3541 3869 3883 3541 3542 3621 3781 3863 3970 3940 3901 3990 3986 3920 3922 4020 4034 4022 3974 3811 3483 3606 3908 3997 4096 3968 3832 3988 3868 4143 4061 4082 3085 2826 2618 2432 2309 2284
2395 2709 3066 3058 3090 3163 3428 3853 3868 3511 3431 2792 2018 1936 1692 1748 1764 1861 2066 2217 2005 2241 2496 2674 3104 3530 3662 3764 3422 3485 3667 3886 3974 4026 3969 3936 3910 3849 3887 3799 3916 3923 3945 3917 3845 3682 3649 3499 3806 4047 4075 3942 3882 3590 3590 3830 3617 3270 2987 2684 2543 2468 2382
3240 2999 3038 2918 2916 3175 3565 3465 4126 2571 2289 1979 2245 2093 1992 1827 1886 1982 2221 2355 2121 2200 2568 2945 3254 3695 3613 3485 3463 3623 3732 3754 3963 4078 3887 4143 4022 3873 3970 4040 3854 3793 3740 3853 3768 3739 3634 3473 3585 3912 4050 3901 3763 3517 3530 3552 3545 3145 3081 2808 2662 2581 2456
2909 2678 2902 2859 2881 2730 3480 3162 3411 3530 3706 4098 3821 3220 2448 2137 2135 2240 2534 2789 2561 2477 2772 3156 3454 4033 3963 3845 3464 3444 3709 3747 3919 4042 3898 3890 4077 4006 3866 3854 3842 3702 3738 3806 3824 3813 3819 3678 3640 3718 3932 3976 3866 3743 3290 3098 3178 3002 2847 2892 2788 2633 2590
2635 2589 2456 2305 2268 2702 3132 3066 3452 3271 3186 3294 3215 2788 2601 2355 2475 2525 2965 3136 2966 2884 2901 3473 4004 4248 4064 3923 3493 3362 3722 3853 3976 4249 4100 3938 3924 4144 4156 4032 4016 4045 4095 3936 4040 4113 3994 4004 3883 3798 3845 3877 3842 3691 3545 3301 3076 3819 2878 2833 2867 2844 2758
3057 3105 2982 2624 2579 2450 2695 3098 3076 3036 3323 3540 3580 3254 3590 3232 3234 3397 3693 3357 3725 3419 3701 4105 3808 3766 3750 3931 3762 3809 3906 4029 3992 3853 3829 3765 3835 4012 4195 4266 4125 4068 4122 4290 4262 4191 4113 4149 3978 3870 3782 3689 3650 3206 3490 3587 3728 2990 2951 2903 2830 2829 2778
2592 2871 2972 2863 2593 2628 2558 2731 2769 2806 3002 3516 4352 4041 3333 4038 4315 4683 4997 4755 4519 4099 3700 3642 3873 3791 3705 3598 3502 3383 3199 3366 3597 3776 3707 3660 3806 4098 4319 4474 4414 4307 4246 4346 4250 4083 3945 3462 3735 3875 3772 3456 3139 3058 3371 3574 3581 3400 3090 2954 2800 2763 2725
2507 2683 2696 2660 2471 2504 2627 2729 2656 2615 2672 2936 3567 4032 4237 4181 4078 3988 4044 3996 3993 4085 3704 3480 3552 3672 3668 3622 3623 3659 3568 3490 3564 3635 3783 3788 3901 4108 4347 4418 4431 4311 4162 4164 4002 3992 3782 3718 3655 3613 3648 3590 3306 3580 3545 3522 3632 3924 3413 3194 3037 2744 2690
2197 2464 2418 2407 2508 2542 2656 2609 2775 2790 2740 2674 2471 2928 3151 3452 3618 3545 3660 3695 3878 4049 4377 4121 3615 3359 3456 3581 3701 3813 3632 3737 3814 3912 4103 4219 4177 4327 4417 4416 4220 4096 4013 3856 3665 3729 3754 3781 3632 3586 3627 3747 3812 3677 3661 3634 3656 3903 4388 3466 3228 3058 2792
2093 2106 2193 2212 2414 2450 2584 2591 2514 2487 2458 2537 2581 2584 2537 2661 2839 3165 3542 3900 3978 4302 4457 4640 4548 4376 4155 3938 3646 3702 3562 3494 3490 3596 3727 4012 4124 4006 3965 3967 3871 3803 3892 3884 3779 3903 3910 3731 3676 3645 3590 3789 3736 3788 3728 3856 3780 3910 4379 3719 3312 3109 2897
1844 1942 1987 2091 2218 2509 2432 2270 2270 2399 2436 2433 2566 2485 2382 2317 2452 2567 2754 3207 3666 4065 4506 4746 4769 4678 4619 4243 4108 3898 3736 3699 3424 3599 3661 3638 3598 3762 3548 3395 3122 3513 3866 3916 3926 3940 3917 3941 3668 3652 3590 3340 3483 3459 3512 3784 3906 3890 4337 3694 3411 3178 2992
1630 1687 1814 1938 2085 2148 1905 1760 1876 1816 1717 1912 2069 2118 2212 2152 2090 1988 2319 2572 2871 3326 3457 3516 3430 3903 4140 4009 4118 4181 4382 4414 4129 3816 3736 3629 3236 3507 3947 3981 3662 4079 3672 3520 3723 3762 3784 3830 3513 3684 3847 3844 3712 3872 3689 3585 3685 3865 3851 3543 3416 3112 2908
1519 1618 1620 1714 1704 1718 1719 1850 1855 1723 1649 1590 1579 1499 1418 1527 1498 1691 1682 1963 2136 2496 2647 2611 2582 2665 2544 2596 2708 2676 2904 2921 2895 3129 3502 3320 3523 3613 3471 3022 3074 3073 3083 3460 3277 3187 3107 3173 3166 3205 3253 3291 3357 3361 3635 3834 3696 3425 3559 3538 3471 3230 2850
1321 1422 1403 1540 1582 1533 1576 1574 1559 1507 1471 1522 1596 1502 1516 1436 1550 1665 1750 1941 2000 1837 1987 2306 2263 2100 1900 1728 1735 1774 2081 2156 2325 2397 2404 2120 2086 1828 1454 1115 814 238 0 0 0 0 0 0 519 1274 1856 2256 2420 2481 2479 2470 2599 2791 2934 3091 3049 3111 3187
1124 1310 1404 1535 1518 1478 1407 1412 1402 1459 1410 1486 1539 1551 1510 1386 1454 1558 1606 1783 1776 1789 1579 2058 2090 1902 1704 1654 1616 1575 1614 1746 1768 1581 1365 1471 1594 1558 1649 1374 1632 1876 906 0 0 0 0 0 0 0 0 0 0 0 6 0 0 314 704 1325 2583 2728 2802
Wind_Speed
10 9 7 6 6 3 1 1 2 3 3 4 6 6 6 7 7 9 9 8 6 6 6 5 5 6 4 5 5 6 6 7 8 8 9 9 9 9 8 8 7 7 7 7 6 6 6 7 9 12 14 15 15 13 11 10 9 9 10 12 11 10 11
12 10 7 6 4 3 2 4 5 5 5 5 7 8 7 7 8 9 9 9 8 8 8 6 6 6 6 7 8 6 5 4 6 9 10 11 11 11 10 10 9 9 9 8 7 7 7 8 10 12 14 15 15 14 12 10 10 10 11 12 11 9 10
12 10 7 5 3 3 3 5 7 6 5 7 8 9 8 9 10 10 12 12 11 10 9 8 7 7 8 8 7 5 5 6 6 6 7 9 9 10 11 10 10 10 10 10 9 8 7 8 10 12 14 15 15 14 12 10 11 11 11 12 11 9 10
14 10 7 3 2 3 5 6 8 8 7 7 8 8 9 10 11 12 13 13 13 12 10 9 10 9 9 8 7 8 7 6 5 7 7 9 10 11 11 11 11 10 11 10 11 10 9 9 11 12 15 15 16 15 13 11 10 11 12 12 10 9 9
15 11 10 8 5 6 5 5 6 9 11 11 9 9 9 11 12 12 12 12 13 13 12 12 12 12 12 10 11 10 9 7 7 7 8 10 11 12 12 11 13 12 11 12 12 12 10 10 11 12 14 16 17 16 14 12 11 12 12 13 10 10 8
17 14 12 9 8 6 5 6 7 9 10 12 13 13 11 12 11 10 11 12 11 11 12 12 12 12 11 11 12 11 11 10 9 9 9 10 12 12 11 12 13 13 13 13 13 12 12 11 11 13 14 16 17 17 16 14 12 12 13 13 11 11 9
19 16 13 12 10 7 5 5 7 9 10 10 11 13 14 13 11 9 10 10 11 12 12 12 12 12 12 12 12 13 13 12 11 11 11 11 12 12 12 13 13 14 14 14 13 13 13 12 12 12 14 16 18 18 16 15 13 13 14 14 13 12 10
nan 19 15 13 11 8 6 4 5 8 11 12 12 13 14 14 13 11 10 10 11 12 11 12 12 12 13 13 13 13 13 14 14 13 13 13 13 13 13 14 14 15 16 14 14 13 13 13 13 13 14 16 18 18 17 16 14 14 14 15 15 14 12
nan 21 19 17 16 15 12 8 6 7 10 14 13 12 14 15 14 13 12 12 13 12 11 12 13 13 14 14 14 14 14 15 14 15 15 15 15 15 15 15 15 16 16 16 15 14 13 14 13 15 15 16 18 19 18 16 15 14 14 15 16 15 13
35 31 26 24 23 21 18 17 16 15 12 15 16 14 13 15 15 14 14 15 15 13 14 14 14 15 15 14 14 15 15 15 14 15 15 15 14 15 16 16 17 18 17 17 16 15 15 14 15 16 17 18 19 19 18 17 15 14 14 15 16 16 15
36 33 31 28 26 25 23 21 18 16 15 18 20 16 14 14 15 16 17 17 16 15 16 16 16 15 16 16 16 16 15 15 15 15 14 14 14 15 16 17 17 19 18 17 16 16 16 16 16 17 18 18 19 19 18 17 16 14 13 14 15 16 16
39 35 31 28 27 25 22 22 21 20 17 19 21 19 17 16 16 17 19 19 18 17 17 17 17 16 16 16 16 15 16 15 14 14 14 14 14 15 16 16 17 17 18 17 17 16 16 17 17 17 18 19 19 18 17 17 16 15 14 14 15 16 16
37 34 32 30 29 29 28 26 22 21 20 19 20 21 19 18 17 17 19 19 20 20 19 19 18 16 16 16 16 15 15 15 14 13 13 14 14 15 16 16 16 16 16 17 16 15 15 15 16 17 17 18 17 15 15 16 15 15 15 14 15 17 17
36 35 35 36 35 32 30 28 26 24 22 19 19 20 20 18 18 17 18 19 21 22 21 20 18 16 15 15 15 14 13 13 14 14 15 15 16 16 15 15 14 13 13 13 13 12 12 12 14 15 15 15 14 13 14 15 15 15 15 15 16 17 18
39 37 38 38 37 35 32 30 28 25 23 19 17 19 20 18 16 18 18 19 21 22 21 21 19 17 16 16 14 12 12 13 14 14 15 15 15 14 13 11 10 10 10 10 10 10 9 10 11 12 11 12 12 12 13 13 14 15 16 17 16 17 18
nan nan nan 40 38 36 33 31 31 27 23 20 18 19 20 19 17 17 18 19 21 21 20 21 18 17 17 15 13 13 14 15 15 16 15 14 12 11 10 8 7 7 7 7 7 7 7 7 8 9 10 11 12 12 13 13 13 16 19 20 19 20 19
nan nan nan nan 42 38 36 35 34 30 24 21 18 18 20 21 19 17 18 19 20 20 20 19 18 16 16 14 14 15 16 16 16 16 14 12 10 9 8 7 5 6 6 7 8 9 9 9 10 10 9 11 12 13 13 12 13 19 23 23 23 22 22
nan nan 43 44 43 40 38 36 35 31 25 21 19 18 21 23 21 19 18 19 18 19 19 17 17 16 15 15 15 15 16 15 16 15 13 12 10 8 7 6 5 5 6 7 10 10 10 12 13 12 11 10 11 12 12 12 14 22 24 26 27 26 24
nan nan nan 41 39 36 35 35 36 34 29 24 21 19 19 24 22 17 17 18 17 17 16 15 15 16 15 15 15 14 15 15 14 13 13 11 11 10 9 8 7 6 7 9 9 10 11 12 12 13 13 12 13 13 13 11 17 23 26 28 30 30 28
nan nan nan 33 37 36 36 37 39 39 35 30 25 20 22 25 19 15 17 19 20 17 15 14 13 14 13 14 14 14 14 13 13 13 12 12 13 12 11 10 9 9 9 9 10 11 12 13 13 11 12 12 12 13 13 14 20 26 28 29 30 31 29
nan nan 27 28 29 31 34 37 38 37 39 37 30 25 24 22 18 17 19 20 19 18 16 14 13 13 14 14 14 14 14 13 13 13 13 13 14 13 12 12 11 11 11 12 13 13 14 14 14 13 13 13 13 12 13 13 23 28 30 30 31 31 29
nan 21 23 26 27 28 30 33 35 37 40 40 35 28 24 21 19 19 19 20 20 19 18 17 15 15 17 17 16 14 14 13 13 14 15 15 14 13 13 13 14 15 15 14 14 15 15 16 16 16 16 15 15 14 14 15 26 29 31 33 33 34 28
25 27 28 27 26 25 28 29 30 33 37 38 36 31 25 23 22 19 20 21 21 21 20 20 19 18 18 17 16 15 14 14 15 15 15 16 16 15 16 16 17 17 19 18 18 18 18 18 19 20 19 18 18 17 17 16 27 31 32 34 36 36 29
28 28 28 27 27 25 25 25 25 27 31 35 35 32 27 24 23 21 19 21 22 21 21 19 17 17 16 15 15 16 17 18 18 18 18 18 17 17 17 18 19 20 22 22 22 21 20 21 22 22 22 21 21 22 21 19 30 35 34 35 38 38 34
30 31 31 29 27 26 27 27 25 24 27 30 32 32 28 24 23 21 20 21 22 21 20 16 14 14 14 16 18 20 21 22 22 21 21 19 18 18 18 19 20 22 25 24 24 23 24 24 23 22 24 24 23 27 24 22 30 37 37 39 42 40 37
35 34 32 30 28 27 27 28 27 26 25 27 32 33 29 25 24 23 23 23 23 22 20 18 17 18 19 19 21 22 23 24 24 24 23 21 20 21 21 22 24 25 27 26 27 27 27 26 25 23 25 26 25 28 28 27 28 39 39 41 42 43 41
36 35 33 31 31 29 30 30 30 31 32 34 37 38 32 28 26 25 25 26 24 23 24 24 24 25 26 24 22 22 23 25 25 25 25 25 25 24 24 25 26 28 29 29 29 29 30 29 28 27 27 28 29 30 30 30 29 40 44 40 39 41 42
36 35 34 33 31 30 32 32 32 32 33 34 35 36 33 30 28 27 29 30 27 26 27 27 27 28 29 29 26 24 24 25 26 26 26 27 26 25 25 27 30 32 32 31 31 30 30 30 29 30 31 31 32 32 33 34 34 37 46 43 40 41 42
36 35 35 34 33 31 31 33 34 35 36 36 37 37 36 33 32 32 33 33 33 30 29 30 30 30 30 30 29 28 27 28 28 26 25 24 24 23 24 27 29 32 32 30 29 27 26 27 28 29 28 30 30 30 32 34 37 39 43 43 42 43 45
36 35 35 36 36 34 32 33 34 36 38 38 40 41 39 38 40 41 43 43 39 37 36 35 35 35 34 32 32 31 30 29 29 27 26 27 27 27 27 28 29 30 30 30 28 28 27 27 31 32 31 29 29 31 32 35 35 41 44 44 44 45 46
37 36 37 37 37 35 35 35 36 37 39 40 43 45 45 45 47 49 48 45 42 40 38 37 37 36 36 36 36 36 35 34 31 30 30 31 31 31 32 31 32 31 29 30 29 29 28 30 34 35 34 34 34 35 35 36 39 39 47 49 48 47 47
39 39 39 38 37 37 37 37 38 40 42 43 43 45 47 48 49 51 48 45 44 43 43 42 40 39 38 38 39 39 39 38 36 34 34 34 34 34 34 34 34 34 33 32 31 31 32 33 35 37 38 38 36 37 40 41 40 40 47 51 52 50 49
41 40 39 39 39 37 37 38 39 40 42 45 45 46 46 48 48 48 47 47 46 45 45 45 45 45 44 44 43 43 41 40 39 38 37 36 37 37 37 37 37 37 35 34 34 35 36 37 38 39 40 39 38 40 40 41 40 40 47 56 54 52 51
42 42 41 39 38 38 39 40 41 41 43 45 45 46 46 47 47 46 46 45 46 47 47 46 45 45 44 44 44 44 43 42 45 42 41 42 40 40 41 39 39 39 38 37 37 38 39 41 39 39 40 39 40 41 41 41 40 40 48 58 57 57 57
41 43 42 42 41 41 40 41 42 43 43 44 45 47 47 48 48 47 47 46 45 44 45 46 46 46 46 46 46 46 45 45 44 43 43 44 44 45 45 44 43 42 41 39 41 44 45 43 43 41 40 43 45 46 44 44 42 44 48 58 60 62 62
41 44 45 45 44 43 42 43 44 45 44 44 45 48 49 50 49 48 48 47 47 47 47 47 47 48 47 47 47 47 48 48 49 50 49 49 48 46 45 49 47 46 45 45 48 51 51 56 51 50 52 52 52 50 50 50 49 50 52 56 60 62 64
42 43 45 46 46 46 46 46 46 46 47 45 45 48 50 51 52 52 51 50 49 49 49 49 50 51 52 52 53 54 54 54 55 54 53 52 50 48 47 48 50 48 nan nan nan nan nan nan 51 51 55 59 55 51 48 47 44 40 43 51 52 57 61
44 45 46 47 48 48 47 46 46 47 47 46 46 47 48 50 51 52 53 53 53 52 53 53 54 55 56 56 57 58 58 58 57 56 54 51 49 48 48 50 51 53 54 nan nan nan nan nan nan nan nan nan nan nan nan nan nan 46 45 47 56 57 57
Wind_Direction
193 193 196 209 230 245 262 255 264 252 270 271 271 284 276 256 247 245 244 251 262 255 253 245 234 224 222 209 206 207 205 204 200 201 210 222 231 242 251 253 260 260 267 278 292 318 332 343 346 350 350 352 350 344 335 325 326 328 330 335 339 341 352
202 202 209 217 234 263 300 288 268 242 245 257 262 279 268 278 265 262 257 260 266 265 260 252 245 232 228 220 216 219 222 217 215 213 218 226 234 241 251 257 259 261 265 271 283 301 316 326 331 337 345 344 345 341 335 328 325 327 325 333 340 339 347
207 209 215 226 238 246 295 286 283 270 260 246 259 268 281 288 284 283 271 266 269 265 260 264 260 251 238 234 233 243 241 235 232 235 240 240 250 258 258 260 262 261 268 276 280 285 294 304 314 326 336 339 341 337 332 327 321 322 329 332 334 335 346
209 212 221 249 276 265 279 300 314 305 281 272 269 282 287 291 285 279 279 281 280 275 279 274 269 266 255 258 256 252 259 258 254 247 251 249 254 258 261 265 262 263 262 270 277 283 283 292 308 318 329 332 335 333 328 324 320 319 329 332 327 329 338
208 209 211 218 235 249 267 296 321 323 323 317 299 279 276 278 279 278 281 283 289 294 295 288 270 270 262 267 253 252 266 278 269 258 255 258 261 264 270 276 273 275 272 270 275 281 287 289 299 309 317 324 330 329 324 317 314 311 318 329 323 318 332
214 214 214 219 232 254 286 319 343 347 338 327 313 299 281 278 268 288 287 286 288 287 281 282 284 284 287 289 279 278 280 285 282 279 271 270 274 275 281 282 281 282 283 280 278 285 294 294 298 305 315 319 327 329 324 315 309 309 315 324 317 308 317
215 222 218 216 224 239 277 309 338 342 334 319 299 281 273 268 272 268 266 280 292 289 293 299 298 294 288 284 290 294 299 298 296 300 288 288 289 289 286 282 284 283 282 282 285 287 294 298 298 300 309 318 320 327 321 311 303 299 303 313 310 302 310
nan 219 220 219 216 220 232 268 324 328 309 294 289 284 282 273 267 266 264 263 272 279 284 299 296 292 289 288 289 303 301 303 298 298 295 300 299 299 294 290 290 289 288 293 293 291 295 298 294 295 305 313 316 318 318 308 301 300 298 304 305 304 297
nan 213 215 211 204 204 209 223 238 256 280 287 289 282 280 272 271 274 281 274 267 276 290 296 299 295 288 291 295 304 299 297 299 300 307 310 302 306 302 295 292 289 291 293 291 293 295 295 295 294 301 306 309 313 313 306 298 292 294 299 304 304 301
213 216 213 207 202 202 205 212 227 233 257 274 275 273 277 272 271 272 273 274 274 290 298 296 292 292 294 298 303 303 299 299 299 306 309 311 302 306 303 294 289 287 289 290 287 289 290 293 295 295 299 304 307 309 308 304 293 287 289 296 302 302 302
217 216 216 212 208 208 211 217 229 237 251 264 270 273 269 271 272 275 277 279 282 286 295 291 291 297 303 308 311 304 300 305 303 308 313 312 302 308 303 299 293 288 292 289 289 291 285 286 290 293 296 298 303 304 305 300 291 285 284 288 295 301 299
216 213 210 209 210 216 217 220 224 234 246 259 274 279 277 274 278 278 277 284 286 284 285 288 287 296 301 304 307 304 311 308 307 314 319 316 309 308 303 298 296 294 290 292 292 290 288 286 286 289 295 297 299 301 299 293 286 283 282 288 296 300 298
210 209 209 210 213 215 218 219 223 232 245 259 278 283 281 284 284 282 278 286 288 281 281 283 283 287 292 296 301 303 311 312 314 311 314 309 306 299 299 301 302 303 297 291 292 293 293 293 292 289 294 296 297 297 294 288 284 281 282 287 297 302 301
206 206 209 211 212 215 216 217 219 225 238 253 271 282 280 283 288 288 289 291 288 284 281 274 280 284 285 284 289 298 307 306 306 308 306 306 304 306 308 308 306 304 297 291 298 301 304 305 300 294 292 295 296 294 288 286 283 285 286 289 299 303 302
206 208 212 211 213 215 214 214 219 225 234 246 266 282 286 283 291 291 294 295 290 288 289 281 282 286 286 282 286 291 288 283 287 293 299 305 307 313 317 315 310 307 303 301 301 295 311 312 313 307 301 299 298 295 290 288 287 284 289 294 304 303 302
nan nan nan 212 216 217 215 212 217 225 234 247 264 277 284 285 291 301 305 304 301 296 290 282 284 285 284 286 285 278 277 281 283 289 297 305 313 318 325 330 335 339 343 343 339 330 328 332 331 331 323 314 309 302 292 292 286 291 303 300 297 304 296
nan nan nan nan 217 218 215 212 215 221 232 246 261 275 279 278 281 288 300 301 306 302 293 286 281 284 284 283 275 272 275 279 286 288 298 306 309 314 329 349 3 18 19 19 17 19 9 6 6 1 344 330 317 313 303 298 293 302 301 305 306 301 300
nan nan 212 219 222 220 217 214 215 219 225 240 254 267 273 272 276 285 295 298 306 304 292 282 280 283 280 272 266 270 278 280 286 290 295 299 311 313 315 324 359 24 26 25 24 19 17 16 17 13 4 346 337 330 318 310 306 303 306 306 308 306 300
nan nan nan 229 230 229 223 218 216 216 217 226 240 255 272 274 275 286 293 288 286 282 284 287 283 276 270 263 263 269 273 276 285 289 291 298 298 294 291 305 331 355 6 15 7 3 10 14 10 11 10 4 356 349 340 333 316 311 309 309 309 311 307
nan nan nan 216 229 230 228 225 220 216 215 220 228 242 257 268 277 281 283 281 276 280 278 277 270 261 256 255 258 264 269 277 286 289 292 286 285 289 298 312 332 341 345 345 345 351 356 358 359 356 358 357 356 349 346 352 325 324 320 318 316 314 310
nan nan 213 220 224 227 231 229 225 221 217 218 224 233 248 265 275 274 279 287 290 287 279 272 261 247 244 250 256 260 266 277 285 287 284 283 284 290 304 317 322 331 332 330 332 334 334 333 337 338 339 340 341 338 341 342 324 325 325 325 324 321 317
nan 216 221 226 228 229 228 226 226 224 221 222 225 228 239 255 266 274 282 290 290 281 278 270 260 250 249 255 262 267 272 280 280 278 277 282 286 295 307 312 317 319 313 312 312 312 312 314 318 322 321 320 321 323 329 322 313 317 318 319 318 318 310
225 229 230 231 229 227 227 225 225 224 225 225 224 226 233 247 258 267 276 286 287 281 276 271 266 263 262 269 275 279 279 277 274 274 278 282 286 294 301 303 305 301 295 301 304 303 305 306 305 299 301 306 305 308 301 296 296 304 308 309 311 303 301
240 236 233 230 229 229 231 231 229 229 229 228 226 226 232 246 255 263 269 277 283 281 276 278 280 278 279 284 287 282 275 270 268 266 268 272 280 286 287 288 286 291 291 294 295 297 296 289 284 286 289 295 297 296 290 284 285 298 300 303 302 300 296
249 245 239 234 229 228 230 231 231 230 234 233 232 231 233 244 256 263 265 269 274 274 274 282 287 288 289 280 272 267 265 266 268 270 274 277 277 273 273 275 275 274 275 278 279 279 274 271 270 271 276 281 285 281 284 279 280 293 296 300 301 297 290
253 248 245 239 235 232 232 231 236 241 243 241 235 231 234 243 252 257 258 262 266 271 274 275 275 275 277 278 278 275 273 272 274 275 277 277 269 263 264 264 267 272 272 271 269 268 268 268 267 268 268 273 279 277 283 282 279 286 298 297 297 301 289
251 249 246 241 237 232 235 236 235 237 237 235 231 228 230 237 246 253 255 258 263 266 264 265 268 275 278 279 279 278 279 277 275 274 273 270 264 263 264 265 268 271 273 275 273 271 271 273 273 274 273 276 281 284 289 286 289 290 304 301 297 297 293
251 253 250 245 239 235 236 236 237 238 239 236 234 228 224 230 240 246 251 256 259 261 260 262 267 275 282 285 286 285 286 287 280 274 271 271 269 269 270 270 271 270 275 280 281 280 279 279 281 283 283 282 285 288 291 292 297 291 302 307 304 300 303
248 250 251 249 246 241 238 237 237 235 233 234 234 231 226 230 238 242 247 252 253 255 258 260 266 273 278 280 282 282 282 282 283 279 279 283 286 285 283 282 281 277 275 280 283 281 283 287 289 290 290 287 288 291 292 292 291 300 294 304 305 304 303
245 246 248 246 245 244 242 240 239 238 235 233 233 234 232 231 234 238 242 243 242 247 250 255 260 265 267 269 272 274 276 277 278 279 280 285 285 286 286 286 285 281 279 280 282 282 284 287 286 288 291 293 291 290 291 288 290 293 300 298 306 305 308
248 247 248 247 244 243 243 243 243 243 241 237 235 234 234 233 235 236 237 238 241 243 247 252 255 257 260 263 266 269 272 274 272 273 275 276 280 283 284 287 286 285 284 284 285 284 283 283 283 286 286 287 288 287 286 285 286 286 291 301 301 303 301
246 246 247 248 246 244 244 245 245 246 246 243 240 238 236 237 237 238 238 239 241 243 245 248 251 253 255 257 259 262 265 268 267 267 269 272 275 278 280 283 286 287 286 285 283 280 278 278 279 280 281 282 284 283 281 280 281 284 283 288 294 297 300
247 246 245 245 243 242 242 243 244 245 246 246 243 242 241 241 240 240 239 238 239 243 247 249 250 251 253 254 255 256 258 261 261 263 266 271 272 275 278 281 283 284 283 280 276 274 274 274 273 274 276 277 277 277 277 279 281 284 283 283 284 287 291
246 246 244 243 243 241 241 241 243 244 245 245 244 243 243 243 243 244 245 243 242 242 244 249 251 253 254 255 255 255 256 258 255 258 266 271 273 276 279 281 281 281 281 278 276 275 275 275 275 276 276 274 273 272 274 276 279 284 284 286 288 288 287
245 247 247 245 242 240 241 242 243 243 244 245 244 244 243 244 244 244 246 248 248 249 250 250 251 251 252 251 250 252 254 260 264 268 269 270 273 272 268 267 267 269 272 275 275 272 271 271 273 275 277 277 277 278 278 279 281 285 285 285 290 290 286
245 246 246 245 245 245 244 244 245 244 242 243 244 245 245 244 244 244 246 249 251 254 255 257 257 258 257 256 256 258 260 260 262 264 267 269 270 269 267 262 260 263 265 267 263 258 262 270 274 272 270 269 271 273 276 277 275 263 266 287 294 295 294
247 246 247 248 250 250 248 247 246 245 244 244 244 245 246 246 245 245 246 248 251 254 255 254 255 255 256 256 257 258 262 264 266 267 268 268 268 266 267 269 268 269 nan nan nan nan nan nan 268 269 274 278 274 271 268 271 271 271 272 274 283 291 295
249 246 246 247 248 249 250 249 248 248 246 245 246 247 247 248 248 249 250 250 252 254 256 256 256 257 258 260 262 262 262 263 264 264 264 263 262 263 265 267 270 272 274 nan nan nan nan nan nan nan nan nan nan nan nan nan nan 270 272 279 288 293 295